HULIANWANG DIGUI-24

Satellite information

Favourite Embed

Satellite Type and Status

PAYLOADIN ORBIT

Key statistics

Satellite HULIANWANG DIGUI-24 at a glance.

Uptime

229

Days in orbit

Revolutions

≈ 13.2

Per day

Orbit

LEO

Low Earth Orbit

Inclination

86.5

Latest

Satellite identification and parameters

Extended collection of information and parameters for HULIANWANG DIGUI-24.

Object identification

Identified? True

Debris? False

Object name: HULIANWANG DIGUI-24

International designator: 2025-086E

Object number (NORAD): 63691

Object ID (CCSDS): 63691

Country: PEOPLES REPUBLIC OF CHINA (PRC)

Current information (Y/N): Y

RCS size: LARGE

Orbital parameters

Period: 108.727 minutes

Inclination: 86.5106 deg

SMA: 7546.047 km

Apoapsis: 1169.427 km

Periapsis: 1166.398 km

RAAN: 16.1395 deg

Eccentricy: 0.00020069

Argument of periapsis: 84.7495 deg

Mean anomaly: 275.3868 deg

Mean motion: 13.24413178 rev/day

Mean motion (dot): 0.0000004 rev/day2

B* drag term: 0.000059054235 1/REarth

Two-line elements (TLE)

Creation date: Dec. 12, 2025, 10:14 a.m.

Reference frame: TEME

Reference center: EARTH

Epoch: Dec. 12, 2025, 5:34 a.m. UTC

TLE line 0: 0 HULIANWANG DIGUI-24

TLE line 1: 1 63691U 25086E 25346.23208963 .00000040 00000-0 59054-4 0 9990

TLE line 2: 2 63691 86.5106 16.1395 0002007 84.7495 275.3868 13.24413178 30112

Live tracking on map

Real-time ground track for satellite HULIANWANG DIGUI-24.

In-orbit conjunctions

There are no conjunctions computed for HULIANWANG DIGUI-24, at the moment. Check back to stay up to date, as we update our databases every day.

Go to all conjunctions

Associated space launch

A batch of 10 Low Earth Orbit communication satellites for the Chinese state owned SatNet constellation operated by the China Satellite Network Group. The constellation will eventually consists of 13000 satellites.

HULIANWANG DIGUI-24 was lifted into orbit during the mission ‘Long March 5B/YZ-2 | SatNet LEO Group 03’, on board a Long March 5B/YZ-2 space rocket.

The launch took place on April 28, 2025, 8:10 p.m. from 101.

For more information about the launch, click the button.

Launch to space Long March 5B/YZ-2 | SatNet LEO Group 03
Long March 5B/YZ-2 | SatNet LEO Group 03

Agency: N/A

Status: Launch Successful

Launch date: April 28, 2025, 8:10 p.m. UTC

Rocket: Long March 5B/YZ-2

Launch pad: 101

Location: Wenchang Space Launch Site, People's Republic of China

...

Latest news about this satellite

News about space launch
China launches third batch of Guowang megaconstellation satellites

China launched a third batch of Guowang megaconstellation satellites Tuesday, advancing its ambitious low Earth orbit communications network to rival Starlink and other global systems. The post China launches third batch of Guowang megaconstellation sate...


Newsletter sign-up

Weekly statistics, charts and insights to help you stay on top of the space industry.